Zurück zum Katalog

SL-12 R/B(2)

AktivGEO
NORAD 17874·ROCKET BODY·🇷🇺 Russia

Gestartet Feb 15, 1984 von Baikonur Cosmodrome

Loading…

TLE

AktuellSource: Space-Track

Epoche: Sep 14, 2026, 15:55 UTC

1 17874U 84016F   26257.66324141 -.00000208  00000-0  00000-0 0  9996
2 17874   8.4056 310.3633 0035403 232.7468 133.8417  1.00323219123754

Verfolge SL-12 R/B(2) in Echtzeit mit AllMySat

Download on the App Store